Wind_Speed
41 41 40 39 39 38 37 37 37 37 36 36 36 36 35 35 35 35 35 35 35 36 36 36 36 36 37 37 38 38 39 39 40 40 41 42 42 43
43 42 41 41 41 40 40 39 39 38 38 37 37 37 37 37 37 37 36 36 36 37 37 38 38 38 38 39 39 40 40 41 41 42 43 43 44 44
44 43 43 42 42 41 41 40 39 39 38 38 38 38 38 38 38 38 38 38 38 38 38 39 39 40 41 41 41 42 42 43 44 44 44 44 45 45
46 45 45 44 44 43 42 41 40 39 39 38 39 39 39 40 40 40 39 39 39 40 40 40 40 41 42 42 43 43 44 45 45 45 45 46 46 46
47 47 47 46 46 44 43 43 42 42 41 41 41 41 41 41 41 41 41 41 41 41 41 41 42 42 43 43 44 45 46 46 46 47 47 47 47 47
48 48 47 47 47 46 46 45 44 43 43 43 43 43 43 43 44 44 43 43 43 43 43 43 44 44 44 45 45 46 47 47 48 48 48 48 48 48
50 50 49 49 49 48 48 47 46 45 45 45 45 44 44 44 45 45 45 45 45 45 45 45 46 46 46 46 47 48 48 48 49 49 49 49 49 49
52 52 52 51 50 50 49 48 47 47 46 46 46 45 45 45 45 45 45 45 45 46 46 46 47 48 48 48 49 49 49 49 49 49 49 50 50 50
53 52 52 52 51 51 50 49 49 48 48 47 47 46 46 47 47 46 46 46 46 47 47 48 48 48 49 49 50 50 50 50 50 50 51 52 52 52
53 52 52 51 51 51 51 50 49 49 49 48 48 48 48 48 48 47 47 48 48 48 49 49 50 50 50 50 50 50 51 51 51 52 52 52 53 53
54 53 52 51 51 52 52 51 50 50 51 51 50 49 49 49 49 49 49 49 49 49 50 50 51 52 51 51 52 52 52 52 53 53 53 53 54 54
55 54 53 52 52 52 52 52 52 52 52 52 52 51 51 51 50 50 50 50 50 50 51 51 52 52 52 52 53 53 53 53 53 54 54 54 54 55
56 55 55 54 54 54 53 53 53 53 53 53 52 52 51 51 51 51 51 51 51 51 51 52 52 52 52 52 52 52 52 53 53 54 54 54 55 55
56 56 56 55 55 54 53 53 53 53 52 52 51 51 50 51 51 52 52 52 52 52 52 52 52 52 52 52 51 52 52 53 54 54 54 54 54 55
56 55 55 55 54 55 54 54 53 53 52 52 52 51 51 51 51 51 52 52 52 52 52 52 51 51 51 51 51 51 52 53 53 53 54 53 54 54
55 55 55 55 55 55 55 54 54 53 53 52 52 52 52 52 51 51 51 51 51 51 52 52 51 51 51 51 51 51 52 53 53 53 53 53 53 53
55 55 55 55 55 55 55 55 54 54 53 53 53 53 53 53 53 52 52 52 52 52 52 51 51 51 51 51 52 52 52 52 52 53 52 52 52 52
56 56 55 55 54 54 54 54 54 54 54 54 54 54 54 53 53 53 53 53 52 52 52 51 52 52 52 52 52 53 52 52 52 52 52 52 51 52
53 53 54 54 54 54 54 54 54 53 53 53 53 53 53 53 53 52 52 52 52 52 52 52 52 53 52 52 52 53 52 52 52 52 52 52 51 51
51 51 51 52 52 52 52 53 53 53 53 52 52 52 52 52 52 52 52 52 52 52 52 52 52 52 52 52 51 51 52 51 51 52 52 52 51 51
50 49 49 50 50 51 51 52 52 52 52 52 52 52 51 51 52 52 52 52 52 52 52 51 52 52 52 51 50 50 51 51 51 51 51 51 51 51
48 48 48 48 48 49 49 50 50 50 51 51 51 51 51 51 51 51 51 51 51 52 51 51 51 51 51 50 50 50 50 51 51 51 51 51 50 49
47 47 47 47 47 47 47 48 48 48 49 49 49 50 50 50 51 50 50 50 50 50 50 50 50 49 49 49 49 49 49 49 50 49 49 48 48 46
Wind_Direction
246 247 248 249 250 252 254 255 256 258 260 262 264 266 268 271 272 273 276 277 278 280 281 282 284 284 284 285 285 285 286 288 289 291 292 293 293 294
246 247 248 250 250 252 255 256 257 258 260 262 264 265 268 271 272 274 275 277 278 280 281 282 283 284 285 285 285 286 287 288 289 290 291 292 292 292
246 247 248 249 251 253 255 255 257 259 260 262 264 265 268 270 272 272 274 275 277 279 280 281 283 283 284 285 285 286 287 288 289 290 290 291 292 293
246 248 249 250 252 253 254 255 257 259 260 262 264 266 268 270 271 271 272 274 277 278 280 281 282 283 284 285 285 286 288 288 289 289 289 290 292 292
247 248 250 250 252 253 255 256 258 259 261 263 264 266 268 269 270 271 272 274 276 278 279 280 282 283 283 284 285 286 287 288 289 289 289 290 291 291
247 248 249 250 251 253 255 257 258 259 261 263 265 266 267 269 271 271 272 274 276 277 279 280 281 283 283 284 285 286 287 288 289 289 289 290 290 291
247 248 249 250 251 253 255 256 257 259 262 264 266 267 268 269 271 271 272 274 275 277 278 280 281 283 283 284 285 286 288 288 289 289 290 290 290 290
248 249 250 250 251 253 255 256 257 259 261 263 265 266 267 268 270 272 273 273 274 276 277 279 281 282 283 284 285 286 287 289 289 290 290 290 290 290
248 249 250 251 252 254 255 256 258 259 261 263 265 266 267 268 270 271 272 272 273 275 276 278 280 281 283 284 285 286 287 288 289 289 290 290 290 290
248 249 249 250 252 254 255 257 259 260 262 264 265 266 267 268 269 271 272 273 274 275 276 278 279 281 282 283 284 285 287 288 288 289 289 289 289 289
248 249 250 250 251 253 255 256 258 260 261 263 264 265 266 267 268 270 272 273 274 275 276 278 279 280 281 283 284 285 286 287 288 288 289 289 289 290
247 248 249 250 251 253 255 256 258 259 261 262 264 265 266 267 268 270 271 273 274 275 277 278 279 280 281 283 284 285 286 286 287 288 289 289 289 289
247 248 248 250 252 254 255 256 258 259 261 262 264 265 266 267 268 270 271 273 274 276 277 279 280 281 282 283 284 285 286 287 288 289 289 289 290 290
248 249 250 251 253 254 256 256 257 259 260 262 264 265 267 268 268 269 271 273 274 276 277 279 280 281 282 283 284 285 286 288 289 289 290 290 291 291
248 249 251 252 253 254 255 256 258 259 261 263 264 265 267 268 269 269 271 273 274 276 277 278 280 281 282 283 284 285 287 288 289 290 290 291 291 292
248 250 251 253 254 255 256 257 258 260 261 263 264 265 266 267 268 270 271 273 274 275 277 278 280 281 282 283 284 285 287 288 289 290 291 291 291 292
248 249 251 253 254 255 256 257 259 260 261 262 264 264 266 267 268 269 271 272 274 275 277 278 279 281 282 283 284 286 287 288 289 290 291 291 292 293
249 250 251 253 254 255 256 257 259 260 261 263 264 265 266 267 268 269 271 272 273 275 276 277 278 280 281 283 284 286 287 288 289 290 291 292 292 293
249 250 251 252 253 254 256 257 258 259 261 262 264 265 266 267 268 269 271 272 273 274 275 277 278 280 281 283 284 285 286 288 289 291 292 293 293 293
249 250 251 253 254 255 256 257 258 260 261 263 264 266 266 267 268 269 270 271 273 274 275 277 278 280 281 282 283 284 286 288 290 291 292 292 293 293
249 251 252 253 254 255 256 257 258 260 262 263 265 266 267 267 268 269 270 271 272 274 275 277 278 279 281 282 282 284 286 288 290 291 291 292 292 293
249 251 252 253 254 255 256 258 259 260 261 263 264 265 266 267 268 269 270 271 271 273 275 276 278 279 280 281 282 284 286 288 290 291 291 292 293 294
249 250 252 253 253 255 257 258 259 260 262 263 264 265 266 267 268 269 269 270 271 273 274 276 278 279 280 281 283 285 287 288 289 290 291 292 293 294
Height
5746 5749 5751 5754 5756 5758 5760 5762 5764 5765 5766 5767 5767 5767 5766 5766 5766 5766 5765 5764 5764 5763 5761 5760 5758 5757 5755 5754 5752 5750 5748 5746 5744 5741 5739 5736 5733 5729
5736 5739 5742 5744 5746 5748 5750 5752 5754 5755 5756 5757 5757 5757 5757 5757 5757 5756 5756 5755 5754 5753 5752 5751 5749 5747 5746 5744 5742 5740 5738 5736 5734 5731 5728 5725 5722 5719
5725 5728 5731 5734 5736 5738 5740 5742 5743 5745 5746 5747 5747 5748 5748 5748 5747 5747 5746 5746 5745 5744 5743 5741 5739 5738 5736 5734 5732 5730 5728 5725 5723 5720 5717 5715 5711 5708
5715 5718 5721 5723 5725 5728 5730 5732 5733 5735 5736 5737 5737 5737 5738 5737 5737 5737 5736 5736 5735 5734 5733 5731 5729 5728 5726 5724 5721 5719 5717 5714 5712 5709 5706 5704 5700 5696
5704 5707 5710 5712 5715 5717 5719 5721 5723 5724 5726 5727 5727 5727 5727 5727 5727 5727 5726 5725 5724 5723 5722 5721 5719 5717 5715 5713 5710 5708 5706 5703 5701 5698 5694 5691 5688 5685
5692 5695 5698 5701 5703 5706 5708 5710 5712 5713 5714 5715 5716 5716 5716 5716 5716 5716 5715 5714 5713 5712 5711 5710 5708 5706 5704 5702 5699 5697 5694 5691 5688 5685 5682 5679 5676 5672
5680 5683 5686 5689 5692 5694 5696 5698 5700 5701 5702 5704 5704 5705 5705 5705 5704 5704 5703 5703 5702 5701 5700 5698 5696 5694 5692 5690 5687 5685 5682 5679 5676 5673 5670 5666 5663 5660
5667 5671 5673 5676 5679 5681 5684 5686 5688 5689 5691 5692 5692 5693 5693 5693 5692 5692 5691 5691 5690 5690 5688 5687 5684 5683 5680 5678 5675 5672 5670 5667 5664 5660 5657 5653 5650 5647
5654 5657 5660 5663 5666 5668 5671 5673 5675 5676 5678 5679 5680 5681 5681 5681 5680 5680 5679 5679 5678 5677 5676 5675 5672 5670 5668 5665 5662 5660 5657 5654 5651 5647 5644 5640 5637 5634
5640 5644 5647 5650 5653 5655 5658 5660 5662 5664 5666 5667 5668 5668 5668 5668 5668 5668 5667 5667 5666 5665 5663 5662 5659 5657 5655 5652 5649 5647 5644 5641 5637 5634 5631 5627 5624 5620
5627 5630 5634 5637 5640 5642 5645 5647 5649 5651 5651 5653 5654 5654 5654 5655 5655 5655 5654 5653 5653 5652 5650 5648 5646 5644 5641 5639 5636 5633 5630 5627 5624 5620 5617 5613 5609 5606
5613 5616 5620 5623 5625 5628 5631 5633 5635 5637 5638 5639 5640 5641 5641 5641 5641 5641 5640 5639 5638 5638 5636 5634 5632 5629 5628 5626 5623 5619 5616 5613 5609 5606 5602 5598 5594 5591
5598 5602 5606 5609 5611 5614 5616 5619 5621 5622 5624 5625 5626 5627 5627 5627 5627 5626 5626 5625 5624 5624 5622 5620 5618 5615 5613 5612 5609 5606 5602 5599 5595 5591 5587 5583 5579 5575
5584 5588 5591 5594 5597 5600 5602 5605 5606 5608 5609 5611 5612 5613 5613 5613 5612 5612 5611 5611 5610 5609 5607 5605 5604 5601 5599 5597 5595 5592 5588 5584 5581 5577 5573 5568 5564 5559
5569 5573 5576 5579 5582 5585 5588 5590 5592 5594 5595 5596 5598 5598 5598 5598 5598 5598 5597 5597 5596 5594 5593 5591 5589 5587 5585 5583 5581 5578 5575 5571 5566 5562 5558 5554 5549 5545
5554 5558 5562 5565 5568 5571 5573 5575 5577 5579 5581 5582 5583 5584 5584 5584 5584 5584 5583 5583 5582 5581 5579 5577 5575 5573 5571 5568 5566 5563 5560 5556 5553 5548 5544 5540 5535 5530
5539 5543 5547 5550 5553 5556 5559 5561 5563 5565 5566 5567 5568 5569 5569 5570 5570 5570 5569 5569 5568 5567 5565 5563 5560 5558 5556 5554 5552 5548 5545 5541 5538 5534 5530 5526 5521 5516
5524 5528 5532 5535 5538 5541 5544 5546 5548 5550 5551 5552 5553 5554 5555 5555 5556 5555 5555 5554 5553 5552 5551 5549 5546 5544 5542 5540 5537 5534 5530 5527 5523 5519 5515 5512 5508 5503
5509 5513 5517 5520 5523 5526 5529 5531 5533 5535 5536 5537 5538 5539 5540 5540 5541 5540 5540 5539 5538 5537 5536 5534 5532 5530 5528 5526 5523 5519 5516 5513 5509 5505 5501 5497 5494 5490
5495 5499 5502 5505 5508 5511 5513 5516 5518 5520 5521 5522 5523 5524 5525 5525 5525 5525 5525 5524 5523 5523 5521 5520 5517 5515 5513 5511 5509 5506 5501 5498 5495 5491 5488 5483 5480 5475
5481 5484 5487 5490 5493 5496 5498 5501 5503 5505 5506 5508 5509 5509 5510 5510 5510 5510 5510 5509 5508 5508 5507 5505 5503 5500 5498 5496 5494 5492 5488 5484 5480 5477 5473 5469 5466 5462
5467 5470 5473 5476 5479 5481 5484 5486 5488 5490 5491 5493 5494 5494 5495 5495 5495 5495 5494 5494 5493 5493 5492 5490 5488 5486 5484 5482 5479 5477 5474 5470 5466 5461 5457 5454 5450 5447
5453 5456 5459 5462 5465 5467 5470 5472 5473 5475 5476 5477 5478 5479 5479 5480 5480 5480 5479 5479 5478 5478 5477 5475 5474 5471 5469 5467 5465 5463 5460 5457 5453 5449 5445 5440 5436 5432